Regional Weather Roundup
Issued by NWS

Home | Current Version | Previous Version | Text Only | Print | Product List | Glossary On
Versions: 1 2 3 4 5 6 7 8 9 10 11 12 13 14 15 16 17 18 19 20 21 22 23 24 25 26 27 28 29 30 31 32 33 34 35 36 37 38 39 40 41 42 43 44 45 46 47 48 49 50
000
ASCA42 TJSJ 251810
RWRPR
PUERTO RICO/U.S. VIRGIN ISLANDS HOURLY WEATHER ROUNDUP
NATIONAL WEATHER SERVICE SAN JUAN PR
200 PM AST TUE JUL 25 2017

PRZ001>002-007>008-010-251900-
PUERTO RICO

CITY           SKY/WX    TMP DP  RH WIND       PRES   REMARKS
SAN JUAN LMM   MOSUNNY   90  75  62 NE20G26   30.02F HX 100
AGUADILLA      MOSUNNY   88  75  66 E15       30.04F HX  97
CEIBA          SUNNY     88  79  74 NE10      30.05F HX 102
$$

VIZ001>002-251900-
U.S. VIRGIN ISLANDS

CITY           SKY/WX    TMP DP  RH WIND       PRES   REMARKS
CHARLOTTE AMA  LGT RAIN  84  77  79 E12       30.04S HX  94
CHRISTIANSTED  MOSUNNY   88  75  66 E13       30.02F HX  97
$$

HOURLY WEATHER ROUNDUP FOR THE NEWS MEDIA

CITY           SKY/WX    TMP DP  RH WIND       PRES   REMARKS
ORLANDO        SUNNY     91  72  52 CALM      30.13F HX  98
NEW YORK       CLOUDY    72  62  71 N6        30.11S
NEWARK         CLOUDY    69  60  73 VRB3      30.11R
CHICAGO        MOSUNNY   79  55  43 S10       30.20S
HARTFORD       CLOUDY    63  56  78 N7        30.11R
BOSTON         CLOUDY    63  55  75 NE10      30.13S
DALLAS         MOSUNNY   91  73  55 SW7       30.06F HX  99
PHILADELPHIA   PTSUNNY   77  62  59 NE8       30.09S
LOS ANGELES    PTSUNNY   74  65  73 SW8       29.99R
WASHINGTON DC  PTSUNNY   76  60  57 NW10      30.13S


USA.gov is the U.S. government's official web portal to all federal, state and local government web resources and services.